Location: Tokomaru
(40.4667°S, 175.5000°E)
Time: 12:20:02
(UTC+00:00)

Daily predictions for brighter satellites

Satellite Brightness Start Highest point End
(mag) Time Altitude Azimuth Time Altitude Azimuth Time Altitude Azimuth
USA 234 3.9 16:09:43 10° SE 16:14:57 50° E 16:14:57 50° E
Atlas Centaur 2 4.1 16:34:35 17° NE 16:34:35 17° NE 16:36:31 10° ENE
Cosmos 2278 Rocket 3.1 16:40:30 45° NE 16:40:30 45° NE 16:44:31 10° NE
Cosmos 1943 Rocket 4.3 16:41:21 17° SSE 16:43:45 22° SE 16:48:00 10° ENE
Lacrosse 5 4.4 16:59:42 11° SSE 16:59:42 11° SSE 17:00:31 10° SSE
NOAA 12 4.4 16:55:12 10° NNE 17:00:25 63° ESE 17:01:01 58° SE
Cosmos 494 Rocket 4.3 17:01:59 63° ESE 17:01:59 63° ESE 17:07:03 10° NNE
USA 307 4.0 17:10:10 41° ENE 17:10:10 41° ENE 17:12:59 10° NE
SL-16 R/B 3.3 17:06:06 10° N 17:11:24 42° ENE 17:16:45 10° SE
DELTA 2 R/B (1) 3.5 17:13:27 79° N 17:13:27 79° N 17:19:05 10° ENE
Meteor 2-21 Rocket 4.3 17:15:04 43° SSW 17:17:16 84° W 17:23:21 10° N
CZ-4C R/B 4.3 17:16:02 10° SSE 17:20:02 49° E 17:24:09 10° N
Cosmos 2298 Rocket 3.9 17:20:10 65° NNW 17:20:59 85° WSW 17:26:23 10° SSE
ERBS 4.4 17:22:29 24° E 17:22:29 24° E 17:24:05 10° ENE
Lacrosse 4 Rocket 4.1 17:18:32 10° NNE 17:21:45 20° ENE 17:25:02 10° ESE
COSMOS 2455 2.8 17:17:52 23° NNW 17:21:46 82° ENE 17:27:51 10° SSE
Cosmos 1092 Rocket 3.9 17:16:22 11° S 17:22:29 87° E 17:28:44 10° N
Cosmos 1428 Rocket 4.4 17:21:52 11° S 17:28:05 88° W 17:34:24 10° N
Cosmos 1066 Rocket 4.3 17:24:02 10° N 17:29:53 85° E 17:35:52 10° S
SL-08 R/B 3.2 17:26:51 10° SSE 17:31:38 89° ENE 17:36:25 10° NNW
USA 305 3.4 17:34:55 48° N 17:34:55 48° N 17:38:18 10° NNE
Cosmos 1048 Rocket 4.0 17:34:04 60° W 17:34:27 62° WNW 17:39:40 10° N
CZ-2C R/B 2.8 17:30:43 10° SSE 17:36:05 74° ENE 17:41:30 10° N
Cosmos 2237 Rocket 3.0 17:38:23 34° SSW 17:38:23 34° SSW 17:42:14 10° S
Cosmos 1766 4.5 17:35:16 14° S 17:38:23 41° E 17:42:07 10° NNE
Tiangong 2.1 17:41:04 46° ESE 17:41:04 46° ESE 17:43:27 10° E
USA 308 2.9 17:40:40 60° NNW 17:40:40 60° NNW 17:44:38 10° NE
SMAP 3.2 17:36:13 10° NNE 17:40:53 76° ESE 17:44:28 18° S
Cosmos 1634 Rocket 3.9 17:35:06 10° NNW 17:41:27 76° W 17:47:50 10° S
Cosmos 1726 3.1 17:41:26 18° SSE 17:43:54 46° E 17:47:28 10° NNE
FengYun 1-2 T 4.2 17:40:36 10° N 17:46:02 57° W 17:48:39 30° SW
Cosmos 2279 Rocket 4.1 17:43:23 10° N 17:49:35 80° E 17:55:52 10° S
SeaSat 1 2.7 17:45:13 10° N 17:49:55 44° WNW 17:50:31 42° W
Lacrosse 5 rocket 3.8 17:50:35 12° S 17:52:14 14° SSE 17:54:35 10° SE
Meteor 2-15 4.4 17:46:58 10° NNW 17:52:59 62° W 17:59:05 10° S
Meteor 2-8 Rocket 4.4 17:47:04 10° NNW 17:53:08 58° W 17:59:18 10° S
Cosmos 1125 Rocket 3.8 17:54:26 37° W 17:55:30 41° WSW 18:00:32 10° S
CORIOLIS 4.1 17:50:57 10° NNE 17:56:25 88° WNW 18:01:59 10° SSW
Cosmos 332 Rocket 3.7 17:52:10 10° NNW 17:57:01 62° WSW 18:01:55 10° SSE
USA 234 3.6 17:52:51 10° SE 17:59:05 46° SSW 18:02:20 27° W
Cosmos 1805 3.4 17:59:00 48° W 17:59:07 48° W 18:02:54 10° NNW
SL-8 R/B 4.3 17:59:11 36° SW 18:00:19 41° SSW 18:04:56 10° SE
Cosmos 2150 Rocket 4.4 17:58:04 23° WNW 18:01:03 41° WSW 18:06:12 10° S
H-2A R/B 1.9 17:56:56 10° N 18:01:48 61° W 18:06:02 14° SSW
Cosmos 1733 3.6 18:02:53 40° WNW 18:02:53 40° WNW 18:06:08 10° NNW
Cosmos 2369 Rocket 3.7 17:58:48 10° S 18:04:01 34° ESE 18:09:10 10° ENE
CZ-4B R/B 2.9 18:02:15 10° N 18:06:08 59° W 18:08:42 22° SSW
ADEOS 3.9 18:01:26 10° N 18:06:25 44° W 18:09:48 20° SW
Radarsat 4.5 18:01:29 10° N 18:06:42 73° WNW 18:11:59 10° SSW
Meteor PRIRODA 4.0 18:05:49 10° N 18:09:20 41° W 18:10:03 37° WSW
Cosmos 1470 4.2 18:06:22 10° S 18:10:06 38° ESE 18:13:45 10° NNE
CZ-2D R/B 3.3 18:06:25 10° N 18:10:13 57° W 18:12:35 22° SSW
COSMO-SKYMED 1 3.4 18:06:01 10° SSE 18:10:21 53° E 18:14:37 10° N
USA 281 3.7 18:05:10 10° NE 18:11:36 59° ESE 18:18:04 10° SSW
Okean 3 3.3 18:08:19 10° N 18:12:31 83° W 18:16:48 10° S
USA 81 4.0 18:08:12 10° N 18:13:29 73° W 18:18:51 10° S
Okean 1-7 3.0 18:10:45 10° NNW 18:15:06 60° W 18:19:33 10° S
Aureole 3 Rocket 4.3 18:12:02 10° N 18:17:24 74° E 18:25:06 10° S
USA 306 4.2 18:16:54 22° WNW 18:17:41 23° NW 18:21:01 10° N
X-37B 0.3 18:18:23 33° WNW 18:19:33 86° NNE 18:22:32 10° ESE
Atlas Centaur 2 3.6 18:17:08 12° WNW 18:20:47 25° N 18:25:36 10° NE
Cosmos 2278 Rocket 3.6 18:22:25 17° W 18:22:25 17° W 18:25:54 10° NW
Meteor 2-10 4.5 18:19:56 10° SSW 18:25:15 43° W 18:30:21 10° NNW
Cosmos 1943 Rocket 2.3 18:22:55 13° SSW 18:27:52 58° WNW 18:33:21 10° N
CZ-4 R/B 3.9 18:24:59 10° ENE 18:27:53 20° ESE 18:30:50 10° SSE
Iridium 2 3.6 18:31:30 10° S 18:35:19 71° W 18:39:04 10° N
FALCON 9 DEB 4.4 18:37:14 19° SW 18:38:17 22° SSW 18:40:58 10° SSE
Lacrosse 5 3.8 18:39:39 10° SSW 18:43:22 20° SSE 18:47:04 10° ESE
CZ-3 R/B 3.7 18:39:19 10° NW 18:46:01 19° N 18:49:40 10° NE
Cosmos 1655 Rocket 4.0 18:39:57 10° S 18:46:23 84° W 18:52:41 10° N
ARGOS 3.5 18:42:53 10° N 18:48:03 45° W 18:53:15 10° SSW
Cosmos 1626 3.1 18:45:12 10° N 18:48:47 51° E 18:52:25 10° SSE
Cosmos 1703 Rocket 4.5 18:46:23 10° NW 18:50:16 28° WSW 18:54:13 10° SSW
Okean O Rocket 2.3 18:48:47 10° NNE 18:53:06 57° ESE 18:57:26 10° S
Cosmos 1707 2.7 18:50:39 10° NNW 18:54:31 63° W 18:58:28 10° S
SL-16 R/B 3.0 18:50:46 10° WNW 18:55:38 29° SW 19:00:34 10° S
ERBS 4.1 18:54:24 11° W 18:56:06 16° WNW 18:58:02 10° NNW
APEX 3.2 18:53:14 10° NNW 18:56:50 82° WSW 19:01:21 10° SSE
Cosmos 1269 Rocket 4.2 18:52:43 10° SSW 18:57:56 54° WNW 19:03:04 10° N
SKYMED 2 3.9 18:54:09 10° S 18:58:21 44° WSW 19:02:31 10° NW
Cosmos 1908 4.5 18:55:30 10° S 18:59:13 44° E 19:02:52 10° NNE
DELTA 2 R/B (1) 4.4 18:54:20 10° W 18:59:39 43° NNW 19:04:55 10° NE
Cosmos 2297 4.2 18:54:25 10° SW 18:59:47 43° WNW 19:05:09 10° N
Lacrosse 4 Rocket 2.0 18:55:59 10° NW 19:00:05 38° WSW 19:04:18 10° SSE
Cosmos 1437 Rocket 3.5 18:56:37 10° S 19:00:28 54° ESE 19:04:12 10° NNE
USA 276 2.0 18:58:19 10° WNW 19:01:24 70° SSW 19:04:30 10° SE
Cosmos 1674 2.6 18:58:04 10° N 19:01:47 89° W 19:05:35 10° S
FALCON 9 R/B 2.9 19:01:33 10° NW 19:02:27 12° NNW 19:03:25 10° N
Cosmos 292 Rocket 3.8 18:58:24 10° NNW 19:03:15 71° WSW 19:08:11 10° SSE
YAOGAN 1 2.8 19:02:58 10° NNE 19:07:18 76° ESE 19:11:43 10° S
Cosmos 1242 Rocket 3.4 19:04:10 10° SSW 19:07:26 30° W 19:10:38 10° NNW
Cosmos 405 Rocket 2.6 19:04:06 10° NNW 19:07:46 65° W 19:11:30 10° S
COSMOS 2455 4.1 19:04:08 10° W 19:08:26 20° SW 19:12:46 10° S
In-Cosmos 22 4.3 19:03:50 10° NNW 19:09:36 70° W 19:15:26 10° S
Cosmos 1782 Rocket 4.4 19:05:56 10° SSW 19:09:47 30° W 19:13:36 10° NNW
Cosmos 1943 3.2 19:04:30 10° NNW 19:10:10 78° WSW 19:15:56 10° SSE
Cosmos 2263 4.3 19:08:12 10° SSW 19:13:54 89° ESE 19:19:31 10° NNE
CZ-2C R/B 4.1 19:12:47 10° SSW 19:15:44 15° WSW 19:18:41 10° W
